sat.trackr.live / text

‹ back to catalog

STARLINK-31924

NORAD 59904 · 2024-100V

PAYLOAD ACTIVE UNKNOWN

§ Identity

Operator
Country
US
Launch date
2024-05-28
Launch site
AFETR
Launch vehicle
Mass (kg)
RCS (m²)

Purposes: comms

External: N2YO · Heavens-Above · Gunter

§ Orbital elements

Epoch: 2026-05-25T03:54:24.298272Z

Period
94.27 min
Inclination
43.0009°
Eccentricity
0.0001286
Mean motion
15.27583228 rev/d
Perigee alt
482.2 km
Apogee alt
483.9 km
Semi-major
6,861.2 km
B*
7.8904e-6
RAAN
53.4102°
Arg perigee
274.9198°
Mean anomaly
85.1507°
Rev number
11,284

§ Raw data

STARLINK-319241 59904U 24100V   26145.16278123 -.00000045  00000+0  78904-5 0  99942 59904  43.0009  53.4102 0001286 274.9198  85.1507 15.27583228112842

JSON: /api/v1/satellites/59904 · /tle

For live sub-satellite position, see the globe view (requires WebGL).

§ Visibility from observer

Set your observer location to see the next 7 days of passes ≥ 10°. The values pass through the URL so the page stays shareable.

No JS? Fill the form by hand. The geolocation button needs JavaScript.